Airfield :
LOGIN :

Register | Disclaimer

   EN    FR    IT 

 










Legend :    VFR   Marginal VFR   IFR   Intensive IFR   Very Intensive IFR
Visi :
Ceiling :
>= 8 km
>= 3000ft
5 to 8 km
1000 to 3000 ft
1500m to 5 km
500 to 1000 ft
800 to 1500m
200 to 500 ft
< 800m
< 200 ft
Symbols :   Thunderstorms  Fog  Heavy snow  Heavy precipitations  Wind > 20 kt
SIGMETs :     Misc.  Thunderstorms  Icing  Turbulence  Mountain Waves  Volcanic Ashes







- Airport Elevation : 915 ft
- IATA code : LUG


LSZA - Lugano

CURRENT METAR :
  • 221220Z 20009KT 9999 FEW060 SCT120 24/12 Q1013 NOSIG

EXPIRED METARs :
  • 221150Z 20009KT 9999 FEW060TCU FEW120 22/11 Q1013 NOSIG
  • 221120Z 20010KT 9999 FEW060 23/11 Q1013 NOSIG
  • 221050Z AUTO 20009KT CAVOK 23/10 Q1013
  • 221020Z 19007KT 9999 FEW050 22/11 Q1013 NOSIG
  • 220950Z 20008KT CAVOK 21/11 Q1013 NOSIG

TAF AMD TAF LSZA
Valid from the 22 at 12:00 until the 22 at 21:00 UTC


221200Z 2212/2221 19010KT 9999 FEW060TCU
BECMG 2216/2219 VRB03KT CAVOK
ATIS : +41 22 417 40 88
No reported NOTAMs for that airfield.



MET'MAP, your aeronautical weather chart ! - Copyright ORBIFLY December 2007 - Disclaimer

ORBIFLY MET'MAP TEAM :

Programming & Development : Alexandra Zaïnal
Concept & Development : Baudouin d'Aumeries
Co-Development & Prog : Marc-Olivier Méhu
Technical & hardware support : Manuel Goepfert

Contact : metmap@orbifly.com




SOURCES & CREDITS :

   NOAA